FIN80U EFHK-EYVI

Flight info

Callsign FIN80U
Flight time 0h 56m
Altitude 38000
Route KOIVU Y123 LARTI DCT DOLAT/N0419F370 DCT IRBEX DCT MURUN DCT PIFBO
Aircraft E190/M-SDE3GILORVW/S

Departure

Time 2026-04-23 14:33
Airport Helsinki Vantaa Airport (EFHK)

Arrival

Time 2026-04-23 15:30
Airport Vilnius International Airport (EYVI)
Time Latitude Longitude Altitude Speed Heading
2026-04-23 13:43 60.31710 24.97162 187 ft 0 kts 244°
2026-04-23 14:22 60.31716 24.97187 187 ft 2 kts 244°
2026-04-23 14:22 60.31722 24.97213 187 ft 2 kts 244°
2026-04-23 14:22 60.31728 24.97241 187 ft 2 kts 260°
2026-04-23 14:23 60.31728 24.97270 187 ft 2 kts 284°
2026-04-23 14:23 60.31721 24.97297 187 ft 2 kts 310°
2026-04-23 14:23 60.31712 24.97314 187 ft 0 kts 330°
2026-04-23 14:23 60.31706 24.97320 187 ft 1 kts 334°
2026-04-23 14:24 60.31705 24.97320 187 ft 0 kts 334°
2026-04-23 14:26 60.31713 24.97312 187 ft 3 kts 333°
2026-04-23 14:26 60.31746 24.97278 187 ft 7 kts 333°
2026-04-23 14:26 60.31793 24.97231 187 ft 7 kts 333°
2026-04-23 14:27 60.31843 24.97181 187 ft 8 kts 333°
2026-04-23 14:27 60.31895 24.97127 187 ft 8 kts 333°
2026-04-23 14:27 60.31952 24.97069 187 ft 9 kts 332°
2026-04-23 14:27 60.32010 24.97005 187 ft 9 kts 332°
2026-04-23 14:28 60.32071 24.96938 187 ft 10 kts 331°
2026-04-23 14:28 60.32135 24.96866 187 ft 10 kts 330°
2026-04-23 14:28 60.32200 24.96787 187 ft 11 kts 330°
2026-04-23 14:28 60.32249 24.96683 187 ft 10 kts 268°
2026-04-23 14:29 60.32206 24.96570 187 ft 10 kts 226°
2026-04-23 14:29 60.32155 24.96457 187 ft 11 kts 228°
2026-04-23 14:29 60.32101 24.96340 187 ft 11 kts 227°
2026-04-23 14:29 60.32046 24.96220 187 ft 12 kts 228°
2026-04-23 14:30 60.31987 24.96091 187 ft 13 kts 226°
2026-04-23 14:30 60.31924 24.95951 187 ft 14 kts 228°
2026-04-23 14:30 60.31852 24.95792 187 ft 15 kts 227°
2026-04-23 14:30 60.31776 24.95627 187 ft 16 kts 227°
2026-04-23 14:31 60.31700 24.95459 187 ft 16 kts 227°
2026-04-23 14:31 60.31623 24.95287 187 ft 17 kts 228°
2026-04-23 14:31 60.31541 24.95109 187 ft 17 kts 229°
2026-04-23 14:31 60.31459 24.94924 187 ft 17 kts 227°
2026-04-23 14:32 60.31412 24.94713 187 ft 17 kts 293°
2026-04-23 14:32 60.31503 24.94563 187 ft 17 kts 335°
2026-04-23 14:32 60.31596 24.94662 187 ft 17 kts 47°
2026-04-23 14:32 60.31846 24.95203 187 ft 93 kts 50°
2026-04-23 14:33 60.32440 24.96512 243 ft 151 kts 45°
2026-04-23 14:33 60.33132 24.98162 823 ft 158 kts 46°
2026-04-23 14:33 60.33821 24.99817 1544 ft 157 kts 45°
2026-04-23 14:33 60.34619 25.01517 1876 ft 178 kts 43°
2026-04-23 14:34 60.35535 25.03453 2284 ft 210 kts 43°
2026-04-23 14:34 60.36546 25.05640 3270 ft 220 kts 44°
2026-04-23 14:34 60.37571 25.07882 4360 ft 224 kts 43°
2026-04-23 14:34 60.38644 25.10244 5246 ft 241 kts 45°
2026-04-23 14:35 60.39364 25.13460 6104 ft 271 kts 80°
2026-04-23 14:35 60.38996 25.17259 7218 ft 290 kts 112°
2026-04-23 14:35 60.38054 25.20775 8396 ft 293 kts 112°
2026-04-23 14:35 60.37121 25.24478 9487 ft 298 kts 110°
2026-04-23 14:36 60.36224 25.28187 10509 ft 303 kts 108°
2026-04-23 14:36 60.35310 25.32034 11530 ft 310 kts 107°
2026-04-23 14:36 60.34047 25.35647 12383 ft 334 kts 134°
2026-04-23 14:36 60.31966 25.37924 13049 ft 358 kts 163°
2026-04-23 14:37 60.29441 25.38246 13553 ft 377 kts 187°
2026-04-23 14:37 60.26780 25.37842 14245 ft 390 kts 182°
2026-04-23 14:37 60.24099 25.36966 15035 ft 394 kts 205°
2026-04-23 14:37 60.21831 25.34181 15938 ft 384 kts 227°
2026-04-23 14:38 60.19845 25.30671 16845 ft 386 kts 229°
2026-04-23 14:38 60.17852 25.27048 17727 ft 389 kts 230°
2026-04-23 14:38 60.15884 25.23447 18576 ft 392 kts 230°
2026-04-23 14:38 60.13851 25.19722 19369 ft 397 kts 231°
2026-04-23 14:39 60.11830 25.16019 20135 ft 403 kts 231°
2026-04-23 14:39 60.09755 25.12224 20881 ft 409 kts 231°
2026-04-23 14:39 60.07653 25.08388 21613 ft 415 kts 230°
2026-04-23 14:39 60.05505 25.04474 22306 ft 420 kts 231°
2026-04-23 14:40 60.03349 25.00554 23013 ft 426 kts 231°
2026-04-23 14:40 60.01140 24.96545 23668 ft 432 kts 230°
2026-04-23 14:40 59.98918 24.92520 24351 ft 436 kts 231°
2026-04-23 14:40 59.96689 24.88488 25021 ft 441 kts 231°
2026-04-23 14:41 59.94400 24.84358 25748 ft 444 kts 231°
2026-04-23 14:41 59.92120 24.80250 26457 ft 448 kts 231°
2026-04-23 14:41 59.89817 24.76109 27092 ft 453 kts 231°
2026-04-23 14:41 59.87435 24.71890 27668 ft 462 kts 227°
2026-04-23 14:42 59.84782 24.68220 28228 ft 477 kts 217°
2026-04-23 14:42 59.81799 24.65279 28769 ft 489 kts 207°
2026-04-23 14:42 59.78524 24.63184 29371 ft 499 kts 197°
2026-04-23 14:42 59.75108 24.61898 29937 ft 504 kts 194°
2026-04-23 14:43 59.71684 24.60449 30495 ft 508 kts 197°
2026-04-23 14:43 59.68237 24.59240 30954 ft 515 kts 188°
2026-04-23 14:43 59.64623 24.58982 31457 ft 520 kts 179°
2026-04-23 14:43 59.61018 24.59687 31958 ft 523 kts 171°
2026-04-23 14:44 59.57447 24.60658 32535 ft 523 kts 172°
2026-04-23 14:44 59.53893 24.61569 33156 ft 523 kts 172°
2026-04-23 14:44 59.50286 24.62480 33788 ft 520 kts 173°
2026-04-23 14:44 59.46751 24.63367 34403 ft 518 kts 173°
2026-04-23 14:45 59.43177 24.64260 34939 ft 516 kts 172°
2026-04-23 14:45 59.39660 24.65139 35480 ft 513 kts 172°
2026-04-23 14:45 59.36144 24.66016 36004 ft 510 kts 172°
2026-04-23 14:45 59.32655 24.66885 36454 ft 508 kts 173°
2026-04-23 14:46 59.29187 24.67744 36829 ft 501 kts 173°
2026-04-23 14:46 59.25749 24.68596 36890 ft 506 kts 172°
2026-04-23 14:46 59.18655 24.70348 36931 ft 526 kts 172°
2026-04-23 14:47 59.11283 24.72161 36926 ft 536 kts 172°
2026-04-23 14:47 59.03940 24.73959 36894 ft 535 kts 172°
2026-04-23 14:48 58.96566 24.75756 36888 ft 535 kts 172°
2026-04-23 14:48 58.89249 24.77532 36894 ft 535 kts 172°
2026-04-23 14:49 58.81857 24.79319 36881 ft 534 kts 172°
2026-04-23 14:49 58.74529 24.81083 36869 ft 534 kts 173°
2026-04-23 14:50 58.67204 24.82838 36865 ft 534 kts 173°
2026-04-23 14:50 58.59818 24.84600 36859 ft 535 kts 173°
2026-04-23 14:51 58.52478 24.86343 36869 ft 535 kts 172°
2026-04-23 14:51 58.45151 24.88078 36863 ft 535 kts 172°
2026-04-23 14:52 58.37779 24.89815 36904 ft 534 kts 172°
2026-04-23 14:52 58.30418 24.91541 36887 ft 535 kts 173°
2026-04-23 14:53 58.23105 24.93251 36873 ft 534 kts 173°
2026-04-23 14:53 58.15730 24.94966 36859 ft 535 kts 173°
2026-04-23 14:54 58.08363 24.96674 36871 ft 534 kts 173°
2026-04-23 14:54 58.01053 24.98250 36875 ft 534 kts 178°
2026-04-23 14:55 57.93646 24.98243 36888 ft 534 kts 181°
2026-04-23 14:55 57.86212 24.98125 36858 ft 534 kts 182°
2026-04-23 14:56 57.78827 24.98009 36894 ft 534 kts 181°
2026-04-23 14:56 57.71425 24.97893 36868 ft 533 kts 182°
2026-04-23 14:57 57.64026 24.97777 36892 ft 534 kts 181°
2026-04-23 14:57 57.56589 24.97661 36874 ft 535 kts 182°
2026-04-23 14:58 57.49195 24.97546 36867 ft 535 kts 181°
2026-04-23 14:58 57.41795 24.97433 36892 ft 535 kts 182°
2026-04-23 14:59 57.34375 24.97319 36857 ft 535 kts 182°
2026-04-23 14:59 57.26904 24.97203 36886 ft 537 kts 182°
2026-04-23 15:00 57.19484 24.97090 36883 ft 538 kts 181°
2026-04-23 15:00 57.12026 24.96977 36861 ft 537 kts 181°
2026-04-23 15:01 57.04588 24.96864 36886 ft 537 kts 182°
2026-04-23 15:01 56.97170 24.96753 36897 ft 536 kts 182°
2026-04-23 15:02 56.89696 24.96639 36736 ft 538 kts 181°
2026-04-23 15:02 56.85979 24.96586 36942 ft 540 kts 181°
2026-04-23 15:02 56.82249 24.96529 36870 ft 537 kts 181°
2026-04-23 15:03 56.74787 24.96417 36879 ft 537 kts 181°
2026-04-23 15:03 56.67332 24.96306 36805 ft 538 kts 181°
2026-04-23 15:04 56.59862 24.96198 36875 ft 528 kts 182°
2026-04-23 15:04 56.56282 24.96144 36656 ft 518 kts 181°
2026-04-23 15:04 56.52672 24.96091 36834 ft 519 kts 181°
2026-04-23 15:05 56.45428 24.95984 36384 ft 529 kts 181°
2026-04-23 15:05 56.41790 24.95932 35854 ft 527 kts 181°
2026-04-23 15:05 56.38141 24.95878 35332 ft 527 kts 181°
2026-04-23 15:06 56.34483 24.95904 34744 ft 529 kts 180°
2026-04-23 15:06 56.30789 24.95994 34134 ft 529 kts 180°
2026-04-23 15:06 56.27166 24.96075 33540 ft 528 kts 180°
2026-04-23 15:06 56.23521 24.96155 32951 ft 528 kts 180°
2026-04-23 15:07 56.19852 24.96236 32366 ft 527 kts 180°
2026-04-23 15:07 56.16187 24.96315 31778 ft 526 kts 179°
2026-04-23 15:07 56.12552 24.96396 31192 ft 525 kts 180°
2026-04-23 15:07 56.08930 24.96475 30634 ft 527 kts 180°
2026-04-23 15:08 56.05296 24.96553 30006 ft 519 kts 180°
2026-04-23 15:08 56.01763 24.96630 29434 ft 513 kts 179°
2026-04-23 15:08 55.98229 24.96708 28892 ft 509 kts 180°
2026-04-23 15:09 55.91201 24.96859 27768 ft 504 kts 180°
2026-04-23 15:09 55.87684 24.96934 27190 ft 502 kts 180°
2026-04-23 15:09 55.84225 24.97008 26637 ft 498 kts 179°
2026-04-23 15:09 55.80769 24.97083 26087 ft 495 kts 180°
2026-04-23 15:10 55.77390 24.97155 25559 ft 491 kts 180°
2026-04-23 15:10 55.73973 24.97228 25010 ft 486 kts 180°
2026-04-23 15:10 55.70599 24.97300 24488 ft 485 kts 180°
2026-04-23 15:10 55.67247 24.97372 23948 ft 483 kts 180°
2026-04-23 15:11 55.63919 24.97441 23430 ft 479 kts 179°
2026-04-23 15:11 55.60629 24.97512 22914 ft 475 kts 180°
2026-04-23 15:11 55.57324 24.97583 22382 ft 470 kts 180°
2026-04-23 15:11 55.54082 24.97651 21878 ft 464 kts 179°
2026-04-23 15:12 55.50917 24.97718 21370 ft 459 kts 180°
2026-04-23 15:12 55.47757 24.97649 20860 ft 454 kts 188°
2026-04-23 15:12 55.44642 24.96852 20375 ft 448 kts 191°
2026-04-23 15:12 55.41605 24.96007 19878 ft 445 kts 191°
2026-04-23 15:13 55.38543 24.95155 19382 ft 441 kts 191°
2026-04-23 15:13 55.35560 24.94326 18900 ft 437 kts 192°
2026-04-23 15:13 55.32577 24.93496 18424 ft 433 kts 191°
2026-04-23 15:13 55.29603 24.92674 17949 ft 429 kts 191°
2026-04-23 15:14 55.26669 24.92231 17478 ft 426 kts 180°
2026-04-23 15:14 55.23736 24.92323 17018 ft 423 kts 179°
2026-04-23 15:14 55.20796 24.92425 16535 ft 420 kts 179°
2026-04-23 15:14 55.17899 24.92525 16080 ft 418 kts 179°
2026-04-23 15:15 55.14994 24.92624 15615 ft 414 kts 179°
2026-04-23 15:15 55.12166 24.92721 15163 ft 410 kts 179°
2026-04-23 15:15 55.09346 24.92818 14711 ft 406 kts 179°
2026-04-23 15:15 55.06517 24.92915 14266 ft 404 kts 179°
2026-04-23 15:16 55.03740 24.93010 13818 ft 396 kts 179°
2026-04-23 15:16 55.01028 24.93102 13380 ft 386 kts 179°
2026-04-23 15:16 54.98386 24.93193 12960 ft 376 kts 179°
2026-04-23 15:16 54.95814 24.93280 12562 ft 367 kts 179°
2026-04-23 15:17 54.93308 24.93364 12156 ft 359 kts 179°
2026-04-23 15:17 54.90826 24.93450 11762 ft 352 kts 179°
2026-04-23 15:17 54.88402 24.93532 11364 ft 348 kts 180°
2026-04-23 15:17 54.85996 24.93613 10946 ft 345 kts 179°
2026-04-23 15:18 54.83625 24.93692 10620 ft 343 kts 179°
2026-04-23 15:18 54.81242 24.93773 10264 ft 343 kts 179°
2026-04-23 15:18 54.78867 24.93854 9915 ft 341 kts 180°
2026-04-23 15:18 54.76529 24.93933 9559 ft 337 kts 179°
2026-04-23 15:19 54.74201 24.94011 9127 ft 330 kts 180°
2026-04-23 15:19 54.71939 24.94088 8786 ft 321 kts 179°
2026-04-23 15:19 54.69732 24.94162 8439 ft 314 kts 180°
2026-04-23 15:19 54.67582 24.94235 8100 ft 308 kts 180°
2026-04-23 15:20 54.65465 24.94306 7763 ft 302 kts 180°
2026-04-23 15:20 54.63407 24.94375 7435 ft 296 kts 180°
2026-04-23 15:20 54.61382 24.94444 7114 ft 290 kts 180°
2026-04-23 15:20 54.59371 24.94587 6845 ft 286 kts 169°
2026-04-23 15:21 54.57558 24.95912 6705 ft 280 kts 146°
2026-04-23 15:21 54.55949 24.97581 6432 ft 269 kts 146°
2026-04-23 15:21 54.54378 24.99233 6091 ft 262 kts 146°
2026-04-23 15:21 54.52845 25.00851 5791 ft 255 kts 145°
2026-04-23 15:22 54.51366 25.02415 5511 ft 247 kts 145°
2026-04-23 15:22 54.49923 25.03945 5255 ft 241 kts 145°
2026-04-23 15:22 54.48595 25.05577 4977 ft 229 kts 124°
2026-04-23 15:22 54.47879 25.07862 4796 ft 208 kts 105°
2026-04-23 15:23 54.47332 25.10073 4628 ft 198 kts 104°
2026-04-23 15:23 54.46813 25.12206 4369 ft 193 kts 104°
2026-04-23 15:23 54.46379 25.14310 4221 ft 172 kts 86°
2026-04-23 15:23 54.46626 25.16074 4036 ft 140 kts 41°
2026-04-23 15:24 54.47366 25.16989 3813 ft 128 kts 20°
2026-04-23 15:24 54.48136 25.17665 3601 ft 121 kts 18°
2026-04-23 15:24 54.48873 25.18295 3385 ft 115 kts 19°
2026-04-23 15:24 54.49536 25.18871 3162 ft 101 kts 15°
2026-04-23 15:25 54.50158 25.19359 2968 ft 98 kts 14°
2026-04-23 15:25 54.50791 25.19827 2803 ft 100 kts 14°
2026-04-23 15:25 54.51432 25.20289 2705 ft 99 kts 14°
2026-04-23 15:25 54.52082 25.20748 2693 ft 101 kts 13°
2026-04-23 15:26 54.52734 25.21203 2620 ft 104 kts 13°
2026-04-23 15:26 54.53401 25.21666 2502 ft 102 kts 12°
2026-04-23 15:26 54.54062 25.22122 2374 ft 104 kts 13°
2026-04-23 15:26 54.54724 25.22578 2240 ft 104 kts 12°
2026-04-23 15:27 54.55397 25.23043 2098 ft 105 kts 13°
2026-04-23 15:27 54.56066 25.23508 1959 ft 103 kts 13°
2026-04-23 15:27 54.56736 25.23969 1817 ft 105 kts 12°
2026-04-23 15:27 54.57414 25.24433 1674 ft 107 kts 13°
2026-04-23 15:28 54.58092 25.24905 1528 ft 105 kts 13°
2026-04-23 15:28 54.58784 25.25379 1390 ft 107 kts 11°
2026-04-23 15:28 54.59483 25.25861 1241 ft 110 kts 14°
2026-04-23 15:28 54.60177 25.26343 1091 ft 107 kts 13°
2026-04-23 15:29 54.60886 25.26831 949 ft 110 kts 13°
2026-04-23 15:29 54.61585 25.27321 806 ft 111 kts 14°
2026-04-23 15:29 54.62307 25.27814 631 ft 113 kts 15°
2026-04-23 15:29 54.62974 25.28261 588 ft 83 kts 20°
2026-04-23 15:30 54.63343 25.28522 596 ft 26 kts 24°
2026-04-23 15:30 54.63430 25.28501 599 ft 12 kts 297°
2026-04-23 15:30 54.63481 25.28405 601 ft 9 kts 342°
2026-04-23 15:30 54.63538 25.28385 603 ft 7 kts 349°
2026-04-23 15:31 54.63582 25.28372 605 ft 6 kts 348°
2026-04-23 15:31 54.63634 25.28352 607 ft 9 kts 346°
2026-04-23 15:31 54.63702 25.28325 610 ft 9 kts 346°
2026-04-23 15:31 54.63770 25.28298 613 ft 10 kts 346°
2026-04-23 15:32 54.63842 25.28269 615 ft 10 kts 346°
2026-04-23 15:32 54.63914 25.28241 618 ft 11 kts 347°
2026-04-23 15:32 54.63998 25.28210 622 ft 13 kts 347°
2026-04-23 15:32 54.64085 25.28175 623 ft 12 kts 346°
2026-04-23 15:33 54.64168 25.28139 624 ft 12 kts 346°
2026-04-23 15:33 54.64212 25.28122 624 ft 5 kts 351°
2026-04-23 15:33 54.64227 25.28120 624 ft 1 kts 356°
2026-04-23 15:33 54.64235 25.28120 624 ft 0 kts 359°
2026-04-23 15:34 54.64238 25.28120 624 ft 0 kts 359°